Regional Weather Roundup
Issued by NWS

Home | Current Version | Previous Version | Text Only | Print | Product List | Glossary Off
Versions: 1 2 3 4 5 6 7 8 9 10 11 12 13 14 15 16 17 18 19 20 21 22 23 24 25 26 27 28 29 30 31 32 33 34 35 36 37 38 39 40 41 42 43 44 45 46 47 48 49 50

620
ASUS45 KBOI 040710
RWRID

IDAHO REGIONAL WEATHER ROUNDUP
NATIONAL WEATHER SERVICE BOISE ID
100 AM MDT WED MAY 04 2016

NOTE: "FAIR" INDICATES FEW OR NO CLOUDS BELOW 12000 FEET
WITH NO SIGNIFICANT WEATHER AND/OR OBSTRUCTIONS TO VISIBILITY

IDZ012-014-040800-
SOUTHWEST IDAHO


CITY           SKY/WX    TMP DP  RH WIND       PRES   REMARKS
BOISE          PTCLDY    66  33  29 SE7       30.00R
CALDWELL       PTCLDY    64  35  34 SE6       29.99R
MOUNTAIN HOME  PTCLDY    58  38  48 E15       30.01S
$$

IDZ016-017-040800-
SOUTHCENTRAL IDAHO


CITY           SKY/WX    TMP DP  RH WIND       PRES   REMARKS
BURLEY         PTCLDY    48  33  56 SE3       30.12S
JEROME         CLEAR     55  24  30 E13       30.10S
TWIN FALLS     PTCLDY    56  29  35 S14       30.08F
$$

IDZ019>023-040800-
SOUTHEAST IDAHO


CITY           SKY/WX    TMP DP  RH WIND       PRES   REMARKS
IDAHO FALLS    CLEAR     45  35  68 N3        30.18S
POCATELLO      CLEAR     44  37  76 NW7       30.17R
REXBURG        CLEAR     46  30  53 NE3       30.19R
$$

IDZ006-010-011-018-031-032-040800-
CENTRAL IDAHO MOUNTAINS


CITY           SKY/WX    TMP DP  RH WIND       PRES   REMARKS
MCCALL         CLEAR     44  37  76 CALM      30.12S
HAILEY         CLEAR     46  34  61 NW7       30.21S
STANLEY          N/A     39  27  62 S5        30.24S
SALMON         CLEAR     48  30  49 CALM      30.10R
CHALLIS        CLEAR     48  24  39 NW3       30.17R
$$

IDZ002-004-006-007-026-040800-
NORTHERN IDAHO


CITY           SKY/WX    TMP DP  RH WIND       PRES   REMARKS
LEWISTON       PTCLDY    64  43  46 CALM      29.92S
LOWELL           N/A     54  49  83 N3        30.02R
COEUR D`ALENE  PTCLDY    55  45  67 SE5       29.94S
MULLAN PASS    CLEAR     54  31  41 CALM      30.14S
$$




USA.gov is the U.S. government's official web portal to all federal, state and local government web resources and services.